Volver al catálogo

STARLINK-30572

ActivoComunicacionesVLEO
NORAD 58114·PAYLOAD·🇺🇸 United States

Lanzado Oct 21, 2023 desde Vandenberg Space Force Base

Loading…

Próximos Pases (próximas 24 horas)

TLE

ActualizadoSource: CelesTrak SupGP

Época: Sep 15, 2026, 03:20 UTC

1 58114C 23161T   26258.13937500  .00071308  00000+0  21060-2 0  2580
2 58114  53.1589   4.4422 0001199  82.9100 252.7433 15.34367079    10

Sigue STARLINK-30572 en tiempo real con AllMySat

Download on the App Store